Home   Weather   Ivalo   Past weeks

Flag for Finland Past Weather in Ivalo, Finland — Yesterday and Last 2 Weeks

Now
63 °F

Broken clouds.


Feels Like: 63 °F
Forecast: 50 / 63 °F
Wind: 10 mph from South

Location: Ivalo

Current Time: Aug 16, 2017 at 8:33:19 pm

Latest Report: Aug 16, 2017 at 7:50 pm


Visibility: N/A

Pressure: 29.95 "Hg

Humidity: 56%

Dew Point: 46 °F

Location of IvaloLocation

Past Weather in Ivalo — Graph

°F

Ivalo Temperature Yesterday

Maximum temperature yesterday: 61 °F (at 2:50 pm)
Minimum temperature yesterday: 45 °F (at 1:50 am)
Average temperature yesterday: 52 °F

High & Low Weather Summary for the Past Weeks

 TemperatureHumidityPressure
High66 °F (Aug 12, 5:20 pm)100% (Aug 2, 2:20 am)30.09 "Hg (Aug 2, 2:20 am)
Low34 °F (Aug 16, 4:50 am)39% (Aug 15, 6:50 pm)29.33 "Hg (Aug 13, 1:20 pm)
Average54 °F80%29.77 "Hg
* Reported Aug 1 7:20 pm — Aug 16 7:20 pm, Ivalo. Weather by CustomWeather, © 2017

Note: Actual official high and low records may vary slightly from our data, if they occured in-between our weather recording intervals... More about our weather records

Advertising

Ivalo Weather History for the Previous 24 Hours

Scroll right to see more
 ConditionsComfort  
Time TempWeatherWind HumidityBarometerVisibility
7:20 pm
Wed, Aug 16
64 °FSunny.10 mph52%29.95 "Hg10 mi
6:50 pm64 °FSunny.9 mph56%29.98 "Hg10 mi
6:20 pm64 °FSunny.12 mph52%29.98 "Hg10 mi
5:50 pm64 °FSunny.12 mph49%29.98 "Hg10 mi
5:20 pm66 °FPassing clouds.12 mph46%29.98 "HgN/A
4:50 pm66 °FPassing clouds.13 mph46%29.98 "HgN/A
4:20 pm64 °FPassing clouds.13 mph46%29.98 "HgN/A
3:50 pm64 °FPassing clouds.9 mph46%29.98 "HgN/A
3:20 pm64 °FPassing clouds.12 mph46%30.01 "HgN/A
2:50 pm64 °FPassing clouds.10 mph46%30.01 "HgN/A
2:20 pm64 °FPassing clouds.8 mph46%30.01 "HgN/A
1:50 pm64 °FPassing clouds.10 mph46%30.04 "HgN/A
1:20 pm63 °FPassing clouds.10 mph45%30.04 "HgN/A
12:50 pm64 °FPassing clouds.7 mph43%30.04 "HgN/A
12:20 pm63 °FPassing clouds.8 mph45%30.04 "HgN/A
11:50 am63 °FPassing clouds.6 mph49%30.04 "HgN/A
11:20 am61 °FSunny.2 mph52%30.04 "Hg10 mi
10:50 am59 °FSunny.1 mph51%30.07 "Hg10 mi
10:20 am55 °FSunny.2 mph55%30.07 "HgN/A
9:50 am54 °FSunny.1 mph58%30.07 "HgN/A
9:20 am52 °FSunny.1 mph62%30.07 "Hg10 mi
8:50 am48 °FSunny.1 mph66%30.07 "HgN/A
8:20 am48 °FSunny.1 mph66%30.07 "Hg10 mi
7:50 am43 °FSunny.3 mph81%30.07 "Hg10 mi
7:20 am41 °FSunny.6 mph81%30.07 "Hg10 mi
6:50 am39 °FPassing clouds.6 mph87%30.07 "HgN/A
6:20 am36 °FSunny.5 mph93%30.07 "Hg10 mi
5:50 am36 °FSunny.3 mph93%30.07 "Hg10 mi
5:20 am36 °FSunny.5 mph93%30.07 "Hg10 mi
4:50 am34 °FSunny.3 mph100%30.07 "Hg10 mi
4:20 am36 °FClear.6 mph100%30.09 "Hg10 mi
3:50 am36 °FClear.3 mph100%30.07 "Hg10 mi
3:20 am36 °FClear.5 mph93%30.07 "Hg10 mi
2:50 am37 °FClear.3 mph93%30.07 "Hg10 mi
2:20 am39 °FClear.5 mph87%30.07 "Hg10 mi
1:50 am39 °FClear.3 mph87%30.07 "Hg10 mi
1:20 am41 °FClear.5 mph81%30.07 "Hg10 mi
12:50 am41 °FClear.3 mph87%30.07 "Hg10 mi
12:20 am43 °FClear.5 mph81%30.07 "Hg10 mi
11:50 pm
Tue, Aug 15
45 °FClear.3 mph76%30.07 "Hg10 mi
11:20 pm45 °FClear.5 mph76%30.04 "Hg10 mi
10:50 pm46 °FClear.5 mph66%30.04 "Hg10 mi
10:20 pm48 °FClear.3 mph62%30.04 "Hg10 mi
9:50 pm52 °FSunny.3 mph54%30.04 "Hg10 mi
9:20 pm54 °FSunny.6 mph47%30.04 "Hg10 mi
8:50 pm55 °FPassing clouds.6 mph44%30.01 "HgN/A
8:20 pm57 °FPassing clouds.10 mph41%30.01 "HgN/A
Weather by CustomWeather, © 2017

See weather overviewHow to use our weather pages